Isachsen, Nunavut

7:11 AM MDT on June 27, 2017 (GMT -0600)
Isachsen

Weather History for CWIC - August, 2013

Change the Weather History Date:

Monday, August 26, 2013

  Actual Average Record
Temperature  
Mean Temperature 18 °F -  
Max Temperature 22 °F - - ()
Min Temperature 15 °F - - ()
Degree Days  
Heating Degree Days 46    
Moisture  
Dew Point 16 °F    
Average Humidity 89    
Maximum Humidity 96    
Minimum Humidity 80    
Precipitation  
Precipitation 0.00 in - - ()
Sea Level Pressure  
Sea Level Pressure 29.77 in    
Wind  
Wind Speed 14 mph ()    
Max Wind Speed 21 mph    
Max Gust Speed 23 mph    
T = Trace of Precipitation, MM = Missing Value Source: Averaged Metar Reports

Daily Weather History Graph

Daily Weather History Graph

Search for Another Location

Airport or City:

Trip Planner

Search our weather history database for the weather conditions in past years. The results will help you decide how hot, cold, wet, or windy it might be!

Date:

Astronomy

Aug. 26, 2013 Rise Set
Actual Time 1:21 AM MDT 11:53 PM MDT
Civil Twilight Sun does not set Sun does not set
Nautical Twilight Sun does not set Sun does not set
Astronomical Twilight Sun does not set Sun does not set
Moon No Moon Rise No Moon Set
Length of Visible Light 24h 00m
Length of Day
22h 32m
Waning Gibbous, 66% of the Moon is Illuminated
Aug 26
Waning Gibbous
Aug 28
Last Quarter
Sep 5
New
Sep 12
First Quarter
Sep 19
Full

Hourly Weather History & Observations

Time (MDT) Temp. Windchill Dew Point Humidity Pressure Visibility Wind Dir Wind Speed Gust Speed Precip Events Conditions
12:00 AM 17 °F - 15 °F 88% 29.73 in - NNW 12.7 mph - -  
12:00 AM 17.1 °F 3.0 °F 15.3 °F 93% 29.73 in - NNW 13.8 mph - 0.01 in   Unknown
1:00 AM 18.5 °F 2.4 °F 17.6 °F 96% 29.74 in - North 19.6 mph - N/A   Unknown
2:00 AM 18.3 °F 3.1 °F 17.2 °F 96% 29.74 in - NNW 17.3 mph - N/A   Unknown
3:00 AM 18.5 °F 4.3 °F 17.6 °F 96% 29.75 in - NNW 15.0 mph - N/A   Unknown
4:00 AM 18.0 °F 2.2 °F 16.7 °F 95% 29.75 in - NNW 18.4 mph - N/A   Unknown
5:00 AM 16.9 °F 1.7 °F 15.4 °F 94% 29.76 in - NNW 16.1 mph 23.0 mph N/A   Unknown
6:00 AM 17 °F - 15 °F 88% 29.77 in - NNW 16.1 mph - -  
6:00 AM 17.2 °F 2.2 °F 15.1 °F 91% 29.77 in - NNW 16.1 mph - N/A   Unknown
7:00 AM 17.4 °F 4.1 °F 15.1 °F 91% 29.77 in - NNW 12.7 mph - N/A   Unknown
8:00 AM 17.8 °F 5.9 °F 14.9 °F 88% 29.77 in - NW 10.4 mph - N/A   Unknown
9:00 AM 18.5 °F 4.3 °F 16.2 °F 91% 29.77 in - NNW 15.0 mph - N/A   Unknown
10:00 AM 21.6 °F 10.6 °F 16.3 °F 80% 29.77 in - NNW 10.4 mph - N/A   Unknown
11:00 AM 19.6 °F 5.7 °F 16.3 °F 87% 29.76 in - NNW 15.0 mph - N/A   Unknown
12:00 PM 20 °F - 17 °F 83% 29.76 in - NNW 13.8 mph - -  
12:00 PM 20.5 °F 7.4 °F 17.2 °F 87% 29.76 in - NNW 13.8 mph 20.7 mph N/A   Unknown
1:00 PM 20.7 °F 5.7 °F 16.7 °F 85% 29.76 in - NNW 18.4 mph - N/A   Unknown
2:00 PM 21.4 °F 5.8 °F 18.0 °F 87% 29.76 in - NNW 20.7 mph - N/A   Unknown
3:00 PM 21.9 °F 8.2 °F 18.1 °F 85% 29.77 in - NNW 16.1 mph - N/A   Unknown
4:00 PM 21.9 °F 6.9 °F 18.7 °F 87% 29.77 in - NNW 19.6 mph - N/A   Unknown
5:00 PM 21.4 °F 6.6 °F 18.9 °F 90% 29.78 in - North 18.4 mph - N/A   Unknown
6:00 PM 19 °F - 16 °F 85% 29.78 in - North 18.4 mph - -  
6:00 PM 19.4 °F 4.1 °F 16.5 °F 89% 29.78 in - North 18.4 mph - N/A   Unknown
7:00 PM 19.0 °F 4.5 °F 16.5 °F 90% 29.78 in - North 16.1 mph - N/A   Unknown
8:00 PM 17.6 °F 3.2 °F 15.4 °F 91% 29.79 in - North 15.0 mph - N/A   Unknown
9:00 PM 15.8 °F 4.2 °F 13.5 °F 90% 29.80 in - North 9.2 mph - N/A   Unknown
10:00 PM 16.2 °F 2.5 °F 14.0 °F 91% 29.80 in - North 12.7 mph - N/A   Unknown
11:00 PM 16.0 °F 1.1 °F 13.8 °F 91% 29.80 in - North 15.0 mph - N/A   Unknown